Weather History for Grand Rapids, MI

Change the Weather History Date:

Monday, August 5, 2013

  Actual Average Record
Temperature  
Mean Temperature 61 °F 72 °F  
Max Temperature 72 °F 82 °F 100 °F (1947)
Min Temperature 49 °F 62 °F 44 °F (1978)
Degree Days  
Heating Degree Days 4 0  
Month to date heating degree days 4 0  
Since 1 June heating degree days 55 51  
Since 1 July heating degree days 15 6  
Cooling Degree Days 0 7  
Month to date cooling degree days 11 35  
Year to date cooling degree days 500 466  
Since 1 June cooling degree days 418 419  
Growing Degree Days 10 (Base 50)    
Moisture  
Dew Point 52 °F    
Average Humidity 72    
Maximum Humidity 93    
Minimum Humidity 51    
Precipitation  
Precipitation T in 0.11 in 0.94 in (2000)
Month to date precipitation 0.01 0.58  
Year to date precipitation 30.43 21.71  
Snow  
Snow 0.00 in 0.00 in 0.00 in ()
Month to date snowfall 0.0 0.0  
Since 1 June snowfall 0.0 0.0  
Since 1 July snowfall 0.0 0.0  
Snow Depth 0.00 in    
Sea Level Pressure  
Sea Level Pressure 30.06 in    
Wind  
Wind Speed 4 mph (South)    
Max Wind Speed 12 mph    
Max Gust Speed -    
Visibility 10 miles    
Events Rain    
T = Trace of Precipitation, MM = Missing Value Source: NWS Daily Summary

Daily Weather History Graph

Daily Weather History Graph

Search for Another Location

Airport:

Trip Planner

Search our weather history database for the weather conditions in past years. The results will help you decide how hot, cold, wet, or windy it might be!

Date:

Astronomy

Aug. 05, 2013 Rise Set
Actual Time 6:37 AM EDT 8:57 PM EDT
Civil Twilight 6:06 AM EDT 9:29 PM EDT
Nautical Twilight 5:26 AM EDT 10:08 PM EDT
Astronomical Twilight 4:43 AM EDT 10:51 PM EDT
Moon 5:32 AM EDT (8/5) 7:56 PM EDT (8/5)
Length of Visible Light 15h 23m
Length of Day
14h 19m
Waning Crescent, 1% of the Moon is Illuminated
Aug 5
Waning Crescent
Aug 6
New
Aug 14
First Quarter
Aug 20
Full
Aug 28
Last Quarter

Hourly Weather History & Observations

Time (EDT) Temp. Dew Point Humidity Pressure Visibility Wind Dir Wind Speed Gust Speed Precip Events Conditions
12:53 AM 57.0 °F 46.9 °F 69% 30.14 in 10.0 mi West 4.6 mph - N/A   Clear
1:53 AM 55.0 °F 48.0 °F 77% 30.13 in 10.0 mi WSW 3.5 mph - N/A   Clear
2:53 AM 54.0 °F 50.0 °F 86% 30.13 in 10.0 mi WSW 5.8 mph - N/A   Clear
3:53 AM 51.1 °F 48.0 °F 89% 30.12 in 10.0 mi Calm Calm - N/A   Clear
4:53 AM 50.0 °F 46.9 °F 89% 30.11 in 10.0 mi Calm Calm - N/A   Clear
5:53 AM 48.9 °F 46.0 °F 90% 30.11 in 10.0 mi Calm Calm - N/A   Partly Cloudy
6:53 AM 50.0 °F 46.9 °F 89% 30.12 in 10.0 mi Calm Calm - N/A   Mostly Cloudy
7:53 AM 52.0 °F 48.9 °F 89% 30.12 in 10.0 mi Calm Calm - N/A   Overcast
8:53 AM 59.0 °F 53.1 °F 81% 30.11 in 10.0 mi Calm Calm - N/A   Overcast
9:53 AM 61.0 °F 52.0 °F 72% 30.11 in 10.0 mi Calm Calm - N/A   Overcast
10:53 AM 63.0 °F 51.1 °F 65% 30.10 in 10.0 mi Calm Calm - N/A   Overcast
11:53 AM 64.0 °F 53.1 °F 67% 30.08 in 10.0 mi SE 4.6 mph - N/A   Overcast
12:53 PM 68.0 °F 51.1 °F 55% 30.04 in 10.0 mi SSE 6.9 mph - N/A   Overcast
1:53 PM 69.1 °F 50.0 °F 51% 30.06 in 10.0 mi South 8.1 mph - N/A   Overcast
2:53 PM 69.1 °F 53.1 °F 57% 30.04 in 10.0 mi South 11.5 mph - N/A   Overcast
3:53 PM 69.1 °F 54.0 °F 58% 30.03 in 10.0 mi SE 8.1 mph - N/A   Overcast
4:53 PM 69.1 °F 55.0 °F 61% 30.01 in 10.0 mi SSE 8.1 mph - N/A   Overcast
5:53 PM 71.1 °F 55.0 °F 57% 30.01 in 10.0 mi South 6.9 mph - N/A   Overcast
6:53 PM 70.0 °F 55.9 °F 61% 29.99 in 10.0 mi SSE 8.1 mph - N/A   Overcast
7:53 PM 69.1 °F 57.9 °F 68% 29.97 in 10.0 mi South 3.5 mph - 0.00 in Rain Light Rain
8:53 PM 68.0 °F 57.9 °F 70% 29.96 in 10.0 mi SE 4.6 mph - 0.00 in   Overcast
9:53 PM 66.9 °F 57.0 °F 70% 29.96 in 10.0 mi South 4.6 mph - N/A   Overcast
10:53 PM 66.9 °F 57.9 °F 73% 29.95 in 10.0 mi South 6.9 mph - N/A   Overcast
11:53 PM 66.9 °F 59.0 °F 76% 29.95 in 10.0 mi SSW 4.6 mph - 0.00 in Rain Light Rain